Probability
0 0 0 0 0 0 0 0 0 0 0 0 0 0 0 0 0 0 0 0 0 0 0 0 0 0 0 0 0 0 0 0 0 0 0 0 0 0 0 0 0 0 0 0
0 0 0 0 0 0 0 0 0 0 0 0 0 0 0 0 0 0 0 0 0 0 0 3 3 3 0 0 0 0 0 0 0 0 0 0 0 0 0 0 0 0 0 0
0 0 0 0 0 0 0 0 0 0 0 0 0 0 0 0 0 0 0 0 0 0 0 0 3 3 0 0 0 0 0 0 0 0 0 0 0 0 0 0 0 0 0 0
0 0 0 0 0 0 0 0 0 0 0 0 0 0 0 0 0 0 0 0 0 0 0 0 0 0 0 0 0 0 0 0 0 0 0 0 0 0 0 0 0 0 0 0
0 0 0 0 0 0 0 0 0 0 0 0 0 0 0 0 0 0 0 0 0 0 0 0 0 0 0 0 0 0 0 0 0 0 0 0 0 0 0 0 0 0 0 0
0 0 0 0 0 0 0 0 0 0 0 0 0 0 0 0 0 0 0 0 0 0 0 0 0 0 0 0 0 0 0 0 0 0 0 0 0 0 0 0 0 0 0 0
0 0 0 0 0 0 0 0 0 0 0 0 0 0 0 0 0 0 0 0 0 0 0 0 0 0 0 0 0 0 0 0 0 0 0 0 0 0 0 0 0 0 0 0
0 0 0 0 0 0 0 0 0 0 0 0 0 0 0 0 0 0 0 0 0 0 0 0 0 0 0 0 0 0 0 0 0 0 0 0 0 0 0 0 0 0 0 0
0 0 0 0 0 0 0 0 0 0 0 0 0 0 0 0 0 0 0 0 0 0 0 0 0 0 0 0 0 0 0 0 0 0 0 0 0 0 0 0 0 0 0 0
0 0 0 0 0 0 0 0 0 0 0 0 0 0 0 0 0 0 0 0 0 0 0 0 0 0 0 0 0 0 0 0 0 0 0 0 0 0 0 0 0 0 0 0
0 0 0 0 0 0 0 0 0 0 0 0 0 0 0 0 0 0 0 0 0 0 0 0 0 0 0 0 0 0 0 0 0 0 0 0 0 0 0 0 0 0 0 0
0 0 0 0 0 0 0 0 0 0 0 0 0 0 0 0 0 0 0 0 0 0 0 0 0 0 0 0 0 0 0 0 0 0 0 0 0 0 0 0 0 0 0 0
0 0 0 0 0 0 0 0 0 0 0 0 0 0 0 0 0 0 0 0 0 0 0 0 0 0 0 0 0 0 0 0 0 0 0 0 0 0 0 0 0 0 0 0
0 0 0 0 0 0 0 0 0 0 0 0 0 0 0 0 0 0 0 0 0 0 0 0 0 0 0 0 0 0 0 0 0 0 0 0 0 0 0 0 0 0 0 0
0 0 0 0 0 0 0 0 0 0 0 0 0 0 0 0 0 0 0 0 0 0 0 0 0 0 0 0 0 0 0 0 0 0 0 0 0 0 0 0 0 0 0 0
0 0 0 0 0 0 0 0 0 0 0 0 0 0 0 0 0 0 0 0 0 0 0 0 0 0 0 0 0 0 0 0 0 0 0 0 0 0 0 0 0 0 0 0
0 0 0 0 0 0 0 0 0 0 0 0 0 0 0 0 0 0 0 0 0 0 0 0 0 0 0 0 0 0 0 0 0 0 0 0 0 0 0 0 0 0 0 0
0 0 0 0 0 0 0 0 0 0 0 0 0 0 0 0 0 0 0 0 0 0 0 0 0 0 0 0 0 0 0 0 0 0 0 0 0 0 0 0 0 0 0 0
0 0 0 0 0 0 0 0 0 0 0 0 0 0 0 0 0 0 0 0 0 0 0 0 0 0 0 0 0 0 0 0 0 0 0 0 0 0 0 0 0 0 0 0
0 0 0 0 0 0 0 0 0 0 0 0 0 0 0 0 0 0 0 0 0 0 0 0 0 0 0 0 0 0 0 0 0 0 0 0 0 0 0 0 0 0 0 0
0 0 0 0 0 0 0 0 0 0 0 0 0 0 0 0 0 0 0 0 0 0 0 0 0 0 0 0 0 0 0 0 0 0 0 0 0 0 0 0 0 0 0 0
0 0 0 0 0 0 0 0 0 0 0 0 0 0 0 0 0 0 0 0 0 0 0 0 0 0 0 0 0 0 0 0 0 0 0 0 0 0 0 0 0 0 0 0
0 0 0 0 0 0 0 0 0 0 0 0 0 0 0 0 0 0 0 0 0 0 0 0 0 0 0 0 0 0 0 0 0 0 0 0 0 0 0 0 0 0 0 0
0 0 0 0 0 0 0 0 0 0 0 0 0 0 0 0 0 0 0 0 0 0 0 0 0 0 0 0 0 0 0 0 0 0 0 0 0 0 0 0 0 0 0 0
0 0 0 0 0 0 0 0 0 0 0 0 0 0 0 0 0 0 0 0 0 0 0 0 0 0 0 0 0 0 0 0 0 0 0 0 0 0 0 0 0 0 0 0
0 0 0 0 0 0 0 0 0 0 0 0 0 0 0 0 0 0 0 0 0 0 0 0 0 0 0 0 0 0 0 0 0 0 0 0 0 0 0 0 0 0 0 0
0 0 0 0 0 0 0 0 0 0 0 0 0 0 0 0 0 0 0 0 0 0 0 0 0 0 0 0 0 0 0 0 0 0 0 0 0 0 0 0 0 0 0 0
Height
5758 5760 5761 5763 5764 5765 5765 5765 5766 5767 5769 5771 5770 5770 5770 5770 5770 5771 5771 5770 5769 5767 5766 5764 5762 5761 5760 5758 5758 5757 5756 5755 5754 5753 5752 5751 5751 5751 5751 5751 5752 5752 5753 5754
5752 5754 5754 5756 5758 5758 5758 5758 5759 5760 5762 5763 5762 5762 5762 5763 5763 5764 5764 5763 5762 5761 5759 5758 5757 5756 5754 5753 5752 5751 5749 5748 5747 5746 5745 5744 5744 5744 5744 5745 5745 5746 5747 5748
5744 5747 5748 5750 5751 5751 5752 5754 5754 5753 5755 5754 5754 5754 5754 5755 5756 5756 5756 5756 5755 5754 5753 5752 5751 5750 5749 5748 5746 5745 5743 5741 5739 5738 5737 5737 5736 5737 5737 5738 5738 5740 5740 5742
5737 5741 5743 5747 5745 5746 5748 5748 5747 5746 5746 5745 5745 5745 5746 5747 5749 5749 5749 5749 5749 5749 5748 5747 5746 5745 5743 5741 5739 5738 5735 5733 5731 5730 5729 5729 5729 5729 5729 5730 5731 5732 5734 5735
5731 5734 5738 5740 5740 5741 5742 5742 5741 5740 5739 5738 5738 5739 5741 5742 5743 5744 5745 5745 5745 5745 5744 5742 5741 5739 5737 5734 5732 5730 5728 5726 5724 5723 5722 5721 5721 5721 5721 5722 5723 5724 5726 5728
5726 5729 5732 5735 5736 5736 5738 5737 5736 5735 5734 5734 5735 5737 5739 5739 5740 5741 5742 5742 5741 5740 5738 5737 5735 5733 5730 5728 5726 5723 5721 5719 5717 5715 5714 5713 5713 5713 5713 5714 5715 5716 5718 5720
5720 5723 5727 5730 5731 5733 5734 5734 5733 5732 5732 5732 5733 5736 5737 5738 5738 5739 5739 5738 5736 5735 5733 5731 5729 5727 5725 5722 5720 5717 5714 5712 5709 5707 5705 5704 5704 5703 5704 5704 5706 5707 5709 5711
5716 5719 5724 5724 5726 5729 5730 5730 5730 5731 5731 5731 5731 5733 5734 5735 5736 5736 5735 5734 5732 5730 5728 5726 5724 5722 5719 5717 5714 5711 5708 5705 5702 5700 5697 5695 5694 5693 5694 5694 5695 5697 5699 5702
5710 5715 5717 5718 5721 5724 5726 5728 5729 5730 5731 5731 5731 5731 5732 5732 5733 5732 5731 5730 5728 5726 5725 5722 5720 5717 5715 5712 5708 5705 5702 5699 5696 5693 5690 5687 5685 5684 5683 5684 5685 5687 5690 5692
5703 5707 5711 5714 5717 5721 5724 5726 5727 5729 5730 5731 5731 5731 5730 5730 5730 5730 5729 5727 5725 5723 5721 5719 5716 5713 5710 5707 5704 5701 5697 5694 5690 5687 5684 5680 5677 5675 5673 5674 5675 5677 5680 5684
5698 5703 5707 5711 5715 5719 5722 5724 5726 5728 5730 5731 5731 5730 5729 5729 5728 5727 5726 5724 5722 5720 5718 5716 5713 5710 5707 5704 5700 5697 5694 5690 5687 5683 5679 5674 5670 5667 5665 5666 5667 5670 5673 5677
5695 5699 5704 5708 5712 5716 5720 5723 5725 5727 5728 5729 5730 5729 5728 5728 5727 5726 5724 5722 5720 5718 5716 5713 5710 5707 5704 5701 5698 5695 5692 5688 5685 5681 5676 5671 5667 5664 5662 5662 5663 5665 5669 5673
5691 5696 5700 5704 5709 5713 5718 5721 5723 5725 5727 5728 5728 5728 5727 5726 5725 5724 5722 5720 5718 5716 5714 5711 5708 5705 5702 5699 5696 5693 5691 5688 5684 5680 5676 5672 5668 5665 5663 5663 5663 5665 5668 5671
5686 5692 5697 5700 5705 5710 5715 5719 5721 5724 5725 5726 5727 5726 5726 5725 5724 5722 5721 5719 5717 5715 5712 5710 5707 5703 5700 5697 5695 5693 5690 5687 5684 5681 5678 5674 5671 5668 5667 5666 5666 5667 5669 5671
5683 5688 5692 5697 5702 5707 5712 5716 5719 5722 5724 5724 5725 5725 5725 5724 5723 5721 5720 5718 5716 5713 5711 5708 5706 5703 5700 5697 5695 5693 5690 5688 5685 5682 5680 5677 5674 5672 5670 5669 5669 5670 5671 5672
5679 5684 5689 5693 5698 5703 5709 5714 5717 5720 5721 5723 5723 5724 5724 5723 5722 5720 5719 5717 5715 5713 5710 5708 5705 5703 5700 5698 5695 5693 5691 5688 5686 5684 5682 5679 5677 5675 5674 5673 5672 5672 5672 5673
5675 5680 5685 5689 5693 5699 5705 5710 5714 5717 5719 5720 5721 5722 5722 5722 5721 5720 5718 5716 5714 5712 5710 5707 5705 5703 5701 5699 5696 5694 5691 5689 5687 5685 5683 5681 5680 5678 5676 5675 5674 5674 5674 5674
5671 5676 5680 5685 5690 5695 5701 5706 5710 5714 5716 5717 5719 5719 5720 5720 5720 5719 5718 5716 5714 5712 5710 5707 5706 5704 5702 5700 5697 5695 5692 5690 5688 5686 5685 5683 5681 5679 5678 5677 5676 5675 5675 5675
5667 5671 5675 5680 5685 5691 5697 5702 5706 5710 5712 5714 5716 5717 5718 5719 5719 5718 5717 5716 5714 5712 5710 5708 5706 5705 5703 5701 5699 5696 5694 5692 5690 5688 5686 5684 5683 5681 5679 5678 5677 5676 5675 5675
5662 5666 5671 5676 5681 5687 5693 5698 5702 5706 5708 5710 5713 5715 5716 5717 5718 5718 5717 5716 5714 5712 5710 5709 5708 5707 5705 5703 5700 5698 5696 5694 5692 5690 5688 5686 5685 5683 5682 5680 5679 5678 5677 5676
5656 5661 5666 5671 5677 5683 5689 5693 5698 5701 5704 5707 5710 5712 5714 5716 5717 5717 5717 5716 5714 5713 5711 5710 5709 5708 5706 5704 5703 5701 5699 5697 5695 5693 5691 5689 5687 5686 5684 5683 5681 5680 5679 5678
5651 5656 5661 5666 5672 5678 5684 5689 5694 5697 5701 5704 5707 5710 5712 5714 5716 5716 5716 5716 5715 5714 5712 5711 5711 5710 5708 5707 5705 5703 5702 5700 5698 5696 5694 5693 5691 5690 5688 5686 5685 5683 5682 5680
5645 5650 5655 5661 5667 5673 5679 5684 5689 5693 5697 5701 5704 5707 5710 5712 5714 5715 5716 5716 5715 5714 5713 5713 5712 5711 5710 5709 5708 5706 5705 5703 5701 5700 5698 5697 5695 5694 5692 5691 5689 5687 5685 5684
5639 5644 5650 5656 5662 5668 5674 5680 5684 5689 5693 5697 5701 5704 5708 5710 5712 5714 5715 5715 5715 5715 5714 5714 5713 5713 5712 5711 5710 5709 5708 5707 5705 5704 5702 5701 5700 5698 5697 5695 5693 5691 5690 5688
5633 5638 5644 5650 5656 5663 5669 5675 5680 5684 5688 5693 5697 5701 5705 5708 5710 5712 5713 5714 5714 5714 5715 5715 5715 5714 5714 5713 5713 5712 5711 5710 5709 5707 5706 5705 5704 5702 5701 5699 5697 5696 5694 5692
5627 5633 5638 5644 5651 5657 5663 5669 5675 5679 5684 5688 5693 5698 5702 5705 5708 5710 5712 5713 5714 5714 5715 5715 5715 5715 5715 5715 5715 5714 5713 5713 5712 5711 5710 5709 5708 5706 5705 5703 5702 5700 5698 5696
5621 5626 5632 5639 5645 5652 5658 5664 5670 5674 5679 5684 5690 5695 5699 5702 5705 5707 5710 5711 5712 5713 5714 5715 5716 5716 5716 5717 5717 5717 5716 5716 5715 5714 5714 5713 5711 5710 5709 5707 5706 5704 5702 5700
Wind_Speed
28 26 26 27 27 28 29 29 32 30 29 26 27 27 27 27 25 25 25 26 27 28 28 28 26 24 22 20 19 19 21 22 22 22 22 22 22 22 21 21 21 21 22 23
29 27 28 27 26 27 29 30 30 30 27 25 26 27 28 27 26 26 27 28 27 27 27 25 23 21 19 19 20 21 23 24 24 24 24 24 24 23 23 22 22 21 22 22
28 26 25 24 22 23 24 24 27 27 24 24 26 27 28 28 27 27 26 25 24 22 21 20 19 19 20 22 24 25 26 26 26 25 25 25 25 24 24 24 23 23 23 23
25 24 22 19 20 20 20 21 24 25 24 23 23 23 24 24 23 22 20 18 17 17 17 18 19 21 24 25 26 26 26 26 26 25 25 25 26 25 25 25 25 25 25 24
24 22 19 18 19 18 18 18 18 17 15 13 12 13 13 14 14 13 12 12 14 15 17 19 21 23 25 25 26 25 25 25 25 25 25 25 26 26 26 26 26 26 25 25
23 20 17 16 16 15 14 12 9 6 4 3 2 3 4 6 7 8 10 12 14 16 18 20 21 22 23 23 23 23 24 24 25 26 26 27 27 28 28 28 28 28 27 27
20 18 17 15 14 13 12 9 9 8 7 6 5 3 3 4 6 8 10 12 14 16 18 19 19 20 20 21 22 23 24 25 26 27 27 28 29 30 30 30 30 29 29 28
19 17 17 16 17 16 14 13 12 9 8 7 6 4 3 5 7 9 11 14 15 16 17 17 18 18 19 20 21 22 23 23 24 25 26 27 28 29 30 30 30 30 29 29
20 20 18 19 22 20 17 15 13 10 8 7 5 3 2 4 7 10 13 15 15 15 16 16 17 17 18 19 20 20 20 20 21 22 23 25 26 28 29 29 29 29 29 29
24 24 22 22 25 23 20 17 13 10 8 6 4 2 2 4 8 11 13 14 14 14 15 15 16 17 18 18 18 18 18 18 19 19 20 21 23 24 25 26 27 28 27 26
26 25 25 26 27 26 22 17 13 11 9 7 5 3 2 5 9 11 13 14 14 14 14 15 17 17 17 16 16 16 16 16 16 16 17 17 16 16 17 19 20 21 22 21
29 27 26 27 29 26 22 18 14 11 9 8 6 5 4 6 9 11 13 14 13 14 14 16 17 16 15 15 15 15 15 15 14 14 14 14 12 9 7 7 10 12 14 16
29 27 26 28 30 28 24 19 15 12 9 8 7 6 6 7 9 11 13 13 13 13 15 16 16 15 15 15 14 13 13 13 12 12 13 12 11 8 4 1 4 6 9 12
28 26 25 29 30 29 25 21 16 12 10 8 7 7 6 7 9 11 12 12 12 13 14 15 15 14 14 14 13 12 11 11 11 12 12 12 11 9 6 4 3 5 6 8
26 26 26 29 31 29 26 21 17 13 11 10 8 7 6 7 8 10 11 11 12 13 13 13 13 13 13 12 11 10 10 9 10 11 11 11 11 9 7 5 3 2 4 5
24 25 27 28 30 30 27 22 17 14 12 10 8 7 6 7 8 9 10 11 11 11 12 11 12 12 11 11 10 9 9 9 9 9 10 10 10 9 7 6 4 2 1 2
22 24 27 29 29 30 28 24 19 15 13 11 8 6 6 7 8 9 10 10 10 10 10 10 10 11 10 10 10 9 9 9 8 8 9 9 9 8 7 6 4 3 1 0
21 22 25 28 30 30 29 25 20 17 14 12 9 7 5 6 7 8 9 9 10 9 9 9 9 10 10 10 10 9 10 9 9 9 8 8 8 8 7 6 5 4 3 1
21 21 23 26 29 31 28 24 20 17 15 13 10 7 5 5 6 7 8 9 9 8 8 8 8 9 9 9 10 10 10 10 10 9 9 8 8 8 7 7 6 4 3 2
22 22 23 25 27 29 28 24 20 17 16 14 12 9 6 5 5 5 7 8 8 8 7 7 7 8 8 9 10 11 11 11 10 10 10 10 10 10 9 9 8 7 6 5
23 23 25 26 27 29 29 25 21 18 17 16 13 10 8 6 5 4 5 7 7 7 6 6 6 7 8 9 10 11 11 11 12 12 12 13 13 13 13 13 12 12 11 10
25 25 26 27 29 30 29 26 23 20 19 17 15 12 10 8 6 4 4 5 6 6 5 5 5 6 8 10 11 11 12 13 13 14 15 15 15 16 16 16 16 15 14 14
25 27 27 28 30 31 30 28 25 22 20 19 17 15 12 10 8 6 4 4 4 4 4 4 4 6 7 9 10 12 13 14 14 15 16 17 17 17 17 17 17 17 17 17
26 27 28 30 32 32 31 29 26 24 22 21 19 17 15 13 11 8 5 4 3 3 3 3 4 5 7 8 10 11 13 14 15 16 17 17 18 18 18 18 18 18 18 18
28 28 29 31 33 33 32 30 27 25 24 23 21 19 18 16 13 10 7 5 2 1 1 2 4 5 6 8 10 11 13 14 15 16 16 17 17 17 18 18 19 19 19 19
29 30 31 32 35 35 34 32 29 27 26 24 23 21 20 18 16 13 10 6 4 2 2 3 5 6 7 8 10 11 12 13 14 14 15 15 16 16 17 17 18 18 18 18
31 32 32 34 36 37 36 33 31 29 27 26 24 23 22 20 18 15 12 9 7 5 5 5 6 7 8 8 9 10 10 11 11 12 12 13 13 14 15 16 16 17 17 17
Wind_Direction
257 258 255 255 259 264 268 269 270 270 270 271 272 271 269 269 271 272 274 276 280 285 288 292 292 290 288 287 286 285 285 285 284 282 279 278 277 277 276 273 270 267 263 259
254 257 256 258 262 263 262 265 270 273 274 274 268 266 267 268 271 273 276 279 280 283 285 288 288 286 286 288 293 294 293 292 289 286 281 278 275 274 273 270 268 267 263 259
252 253 257 262 262 261 264 271 276 279 280 275 269 268 267 269 271 275 278 278 279 280 283 284 284 283 285 290 293 294 293 292 290 287 282 279 276 275 272 269 266 263 261 257
255 251 255 261 261 264 272 277 279 283 283 279 275 270 267 267 269 271 274 275 277 281 283 285 284 286 288 291 293 293 292 290 288 285 282 278 276 274 271 268 265 263 258 255
255 254 253 255 260 269 276 277 278 280 279 275 272 267 262 259 261 264 268 274 279 283 285 286 287 290 292 294 295 295 294 292 289 286 282 278 275 273 270 269 266 263 259 254
252 252 248 250 260 268 269 256 250 236 219 204 211 235 240 246 255 264 273 281 286 289 290 291 292 294 294 296 297 297 296 294 292 288 284 280 276 273 272 269 266 263 259 254
246 244 241 243 246 246 225 198 180 166 158 151 154 181 224 253 270 282 291 296 298 298 298 298 299 299 300 301 301 300 298 295 292 288 285 281 277 274 271 268 265 261 258 254
238 236 234 231 223 214 200 188 179 176 177 173 172 187 230 274 297 308 310 309 308 306 305 305 306 307 308 307 306 305 302 299 295 291 287 283 279 275 271 267 263 259 257 254
224 223 221 215 207 202 197 192 189 190 193 192 192 199 259 306 317 318 317 316 314 312 311 312 314 315 314 313 312 310 308 304 301 296 291 286 282 276 271 266 260 257 254 253
218 217 215 205 203 202 199 197 196 198 201 206 212 228 300 320 321 321 321 321 320 319 319 320 321 321 319 318 317 318 316 313 311 307 301 296 288 280 270 263 257 253 249 247
217 215 210 203 202 201 201 201 200 202 210 217 222 240 288 320 324 325 327 327 325 323 323 325 326 325 323 323 325 326 327 325 323 320 317 312 303 290 275 262 255 247 243 239
218 219 215 208 206 203 204 204 205 209 218 224 231 250 287 318 328 330 331 330 327 325 326 327 328 329 329 331 334 334 333 332 333 335 338 338 333 321 295 260 241 230 224 222
222 221 217 210 208 207 207 208 211 216 227 234 245 264 289 316 329 332 332 330 327 327 328 329 331 334 337 339 339 338 337 339 345 351 358 3 5 11 21 96 182 191 198 204
224 222 218 212 208 208 209 211 215 223 236 245 254 268 290 315 330 333 333 330 328 328 329 331 336 341 344 343 341 340 343 350 357 3 9 15 21 28 41 68 122 158 177 189
226 223 217 213 210 210 211 213 218 226 240 247 254 269 292 315 329 333 333 330 328 328 330 335 342 346 349 346 342 343 349 356 2 8 13 17 22 27 34 47 73 131 173 192
228 223 219 217 215 212 209 210 216 227 239 247 254 270 295 315 327 331 331 330 329 330 334 340 348 351 352 350 348 350 355 359 2 6 11 15 19 23 28 35 43 59 130 197
228 223 219 218 216 209 205 207 213 225 235 242 249 265 290 310 323 328 330 332 333 334 340 348 354 356 355 355 358 2 4 6 6 5 5 8 10 14 18 23 29 35 42 207
228 225 221 217 213 205 201 202 209 221 230 234 241 254 278 302 317 326 333 337 339 341 347 356 0 1 0 1 5 10 11 10 9 7 6 6 7 8 13 17 22 29 35 35
225 222 218 215 210 203 199 201 208 217 224 229 232 241 263 288 307 322 334 341 345 348 355 4 6 5 6 9 16 18 18 18 17 16 17 16 17 19 22 25 28 31 31 28
223 217 213 211 208 203 200 203 208 216 222 225 224 229 242 263 287 313 335 347 351 355 4 12 12 12 16 22 26 27 29 30 32 35 37 38 40 42 43 46 48 48 47 42
223 215 211 208 208 204 203 206 211 217 222 222 219 220 227 240 259 293 331 348 355 3 13 19 20 23 28 33 35 38 41 45 48 51 53 54 56 56 56 55 55 54 53 50
223 214 209 207 207 207 207 209 213 217 221 219 216 216 219 225 236 261 311 341 357 10 21 26 30 37 42 45 47 50 54 57 59 61 62 62 62 61 60 59 59 58 57 55
221 212 208 205 206 206 208 211 213 216 219 217 213 212 214 219 228 243 276 323 351 15 29 38 48 56 59 59 59 61 63 65 66 66 67 66 65 64 63 61 60 59 58 58
218 211 207 205 205 206 208 209 212 215 217 214 211 210 212 216 222 232 251 292 342 19 42 57 70 74 75 74 72 71 70 70 70 69 69 68 66 65 63 62 61 60 60 59
215 210 206 204 204 204 205 206 210 214 214 211 209 209 211 215 221 228 241 262 295 17 81 93 99 97 93 88 84 79 76 75 74 72 71 69 67 65 64 63 62 62 61 60
214 208 204 203 202 201 202 204 208 211 211 209 208 210 213 216 220 225 233 242 239 213 164 135 122 114 106 99 93 87 82 79 76 74 71 69 67 65 64 63 61 60 59 58
212 207 203 202 200 199 200 203 207 209 209 208 208 212 214 216 220 225 230 230 220 206 186 161 140 127 117 108 101 93 86 81 78 74 71 68 65 62 60 59 57 56 54 52